TimeMDT,TemperatureF,Dew PointF,Humidity,Sea Level PressureIn,VisibilityMPH,Wind Direction,Wind SpeedMPH,Gust SpeedMPH,PrecipitationIn,Events,Conditions,WindDirDegrees,DateUTC
12:53 AM,62.1,37.0,39,30.06,10.0,NNE,8.1,-,N/A,,Clear,20,2013-09-01 06:53:00
1:53 AM,61.0,37.0,41,30.06,10.0,NNE,8.1,-,N/A,,Clear,20,2013-09-01 07:53:00
2:53 AM,60.1,37.0,42,30.05,10.0,North,6.9,-,N/A,,Clear,360,2013-09-01 08:53:00
3:53 AM,57.9,37.0,46,30.05,10.0,Calm,Calm,-,N/A,,Clear,0,2013-09-01 09:53:00
4:53 AM,57.9,37.9,47,30.05,10.0,North,6.9,-,N/A,,Clear,360,2013-09-01 10:53:00
5:53 AM,54.0,37.9,55,30.06,10.0,NW,6.9,-,N/A,,Clear,320,2013-09-01 11:53:00
6:53 AM,53.1,37.9,57,30.07,10.0,NW,5.8,-,N/A,,Clear,310,2013-09-01 12:53:00
7:53 AM,57.9,41.0,53,30.07,10.0,SSW,4.6,-,N/A,,Clear,200,2013-09-01 13:53:00
8:53 AM,59.0,42.1,53,30.07,10.0,SSW,5.8,-,N/A,,Partly Cloudy,210,2013-09-01 14:53:00
9:53 AM,62.1,43.0,50,30.07,10.0,SSW,6.9,-,N/A,,Partly Cloudy,200,2013-09-01 15:53:00
10:53 AM,66.9,41.0,39,30.05,10.0,Calm,Calm,-,N/A,,Partly Cloudy,0,2013-09-01 16:53:00
11:53 AM,71.1,42.1,35,30.03,10.0,SSW,4.6,-,N/A,,Partly Cloudy,210,2013-09-01 17:53:00
12:53 PM,75.0,41.0,29,30.01,10.0,WSW,6.9,-,N/A,,Partly Cloudy,240,2013-09-01 18:53:00
1:53 PM,81.0,41.0,24,29.98,10.0,Variable,4.6,-,N/A,,Partly Cloudy,0,2013-09-01 19:53:00
2:53 PM,84.9,43.0,23,29.94,10.0,Variable,3.5,-,N/A,,Clear,0,2013-09-01 20:53:00
3:53 PM,86.0,44.1,23,29.92,10.0,NE,10.4,-,N/A,,Clear,50,2013-09-01 21:53:00
4:50 PM,87.1,45.0,23,29.91,10.0,ENE,9.2,-,N/A,,Clear,60,2013-09-01 22:50:00
5:53 PM,87.8,44.6,22,29.90,10.0,NE,6.9,-,N/A,,Clear,50,2013-09-01 23:53:00
6:53 PM,86.0,44.1,23,29.90,10.0,NE,5.8,-,N/A,,Clear,50,2013-09-02 00:53:00
8:50 PM,81.0,45.0,28,29.89,10.0,NE,4.6,-,N/A,,Clear,40,2013-09-02 02:50:00
8:53 PM,75.0,45.0,34,29.91,10.0,North,3.5,-,N/A,,Clear,10,2013-09-02 02:53:00
9:53 PM,75.9,41.0,29,29.91,10.0,Calm,Calm,-,N/A,,Clear,0,2013-09-02 03:53:00
10:53 PM,71.1,39.9,32,29.91,10.0,North,3.5,-,N/A,,Clear,350,2013-09-02 04:53:00
11:53 PM,70.0,41.0,35,29.89,10.0,North,4.6,-,N/A,,Clear,350,2013-09-02 05:53:00